Regional Weather Roundup
Issued by NWS

Home | Current Version | Previous Version | Text Only | Print | Product List | Glossary Off
Versions: 1 2 3 4 5 6 7 8 9 10 11 12 13 14 15 16 17 18 19 20 21 22 23 24 25 26 27 28 29 30 31 32 33 34 35 36 37 38 39 40 41 42 43 44 45 46 47 48 49 50

000
ASUS43 KLOT 150300
RWRIL

ILLINOIS REGIONAL WEATHER ROUNDUP
NATIONAL WEATHER SERVICE CHICAGO/ROMEOVILLE IL
1000 PM CDT SUN SEP 14 2014

NOTE: "FAIR" INDICATES FEW OR NO CLOUDS BELOW 12,000 FEET WITH NO
SIGNIFICANT WEATHER AND/OR OBSTRUCTIONS TO VISIBILITY.

* THESE STATIONS ARE NOT UNDER NWS QUALITY CONTROL. THEY ALSO MAY NOT
  REPORT WEATHER SUCH AS PRECIPITATION OR FOG.

ILZ001-002-007-009-015-016-024-150400-
NORTHWEST ILLINOIS

CITY           SKY/WX    TMP DP  RH WIND       PRES   REMARKS
MOLINE         MOCLDY    54  50  86 CALM      30.17R
STERLING*      CLEAR     52  45  76 CALM      30.17S
$$

ILZ003-004-008-010-011-017-018-150400-
NORTH CENTRAL ILLINOIS

CITY           SKY/WX    TMP DP  RH WIND       PRES   REMARKS
ROCKFORD       MOCLDY    51  47  86 S5        30.20S
FREEPORT*      CLEAR     49  46  92 S3        30.19S
ROCHELLE*      CLEAR     47  45  91 S6        30.18S
$$

ILZ005-006-012>014-019>023-150400-
NORTHEAST ILLINOIS

CITY           SKY/WX    TMP DP  RH WIND       PRES   REMARKS
CHICAGO-OHARE  PTCLDY    53  46  77 SW3       30.17S
CHICAGO-MIDWAY PTCLDY    60  45  57 SW3       30.18S
AURORA         CLEAR     49  44  83 CALM      30.18S
LANSING*       CLEAR     51  47  87 CALM      30.19S
WAUKEGAN       PTCLDY    52  46  80 VRB3      30.17R
DUPAGE AIRPORT CLEAR     50  47  89 CALM      30.17S
WHEELING       CLEAR     54  47  77 CALM      30.20R
NORTHERLY ISL    N/A     60  43  53 S3          N/A
$$

LMZ740>746-150400-
SOUTHERN LAKE MICHIGAN

STATION/POSITION SKY/WX   TEMP    WIND        PRES    VSBY  WAVE
                          AIR SEA DIR/SP/G                  HT/PER
                          (F)     (DEG/KT/KT) (MB)    (MI)  (FT/S)
SOUTHERN BUOY              62 65  190/ 12/ 14 1021.8F         1/ 4
WAUKEGAN HARBOR            59     230/  5/  7   N/A
HARRISON CRIB              62     180/  8/  8   N/A
BURNHAM HARBOR             61     190/  3/  4   N/A
CALUMET HARBOR             60     170/  3/  4 1020.8R
MICHIGAN CITY              59     140/  5/  7   N/A
MICHIGAN CITY 6N           61 64  190/  6/  8   N/A           1
ST. JOSEPH                 61 67  140/  8/  8   N/A           1/ 2
$$

ILZ025>027-034>036-040-047-049-050-058-095>099-150400-
WEST-CENTRAL ILLINOIS

CITY           SKY/WX    TMP DP  RH WIND       PRES   REMARKS
QUINCY         PTCLDY    55  49  80 S6        30.17S
GALESBURG*     MOCLDY    55  47  75 CALM      30.18R
MACOMB*        CLEAR     49  47  92 S3        30.20S
$$

ILZ028>032-037-038-041>044-048-051>054-059>061-150400-
CENTRAL ILLINOIS

CITY           SKY/WX    TMP DP  RH WIND       PRES   REMARKS
DECATUR        CLEAR     55  46  71 S6        30.19F
PEORIA         PTCLDY    54  50  86 CALM      30.18S
SPRINGFIELD    CLEAR     54  48  80 S6        30.19S
TAYLORVILLE    NOT AVBL
$$

ILZ033-039-045-046-055>057-062-063-150400-
EAST-CENTRAL ILLINOIS

CITY           SKY/WX    TMP DP  RH WIND       PRES   REMARKS
CHAMPAIGN      CLEAR     52  46  80 S7        30.20S
MATTOON        CLEAR     53  49  86 S3        30.20S
$$

ILZ079-100>102-150400-
SOUTHWEST ILLINOIS

CITY           SKY/WX    TMP DP  RH WIND       PRES   REMARKS
ALTON          CLEAR     54  50  87 CALM      30.19S
CAHOKIA*       CLEAR     58  51  78 S5        30.19S
SPARTA*        CLEAR     54  50  87 CALM      30.21S
$$

ILZ064>066-069>071-074>076-080>082-084>086-088>090-092>094-150400-
SOUTH-CENTRAL ILLINOIS

CITY           SKY/WX    TMP DP  RH WIND       PRES   REMARKS
CARBONDALE     CLEAR     53  50  89 CALM      30.21R
MT. VERNON     CLEAR     50  46  87 CALM      30.21S
SALEM*         CLEAR     53  52  98 CALM      30.21S
$$

ILZ067-068-072-073-078-083-087-091-150400-
SOUTHEAST ILLINOIS

CITY           SKY/WX    TMP DP  RH WIND       PRES   REMARKS
LAWRENCEVILLE  CLEAR     52  50  93 CALM      30.21S
HARRISBURG*    CLEAR     54  53  99 CALM      30.22S
ROBINSON*      CLEAR     49  48  97 CALM      30.22R
$$

ABBREVIATIONS USED IN REMARKS
   TC - TEMPERATURE IN CELSIUS
  WCI - WIND CHILL INDEX
   HX - HEAT INDEX
  VSB - VISIBILITY
$$



USA.gov is the U.S. government's official web portal to all federal, state and local government web resources and services.